Regional Weather Roundup
Issued by NWS Albany, NY

Home | Current Version | Previous Version | Text Only | Print | Product List | Glossary On
Versions: 1 2 3 4 5 6 7 8 9 10 11 12 13 14 15 16 17 18 19 20 21 22 23 24 25 26 27 28
000
ASUS41 KALY 252210
RWRALY

NEW YORK STATE HOURLY WEATHER ROUNDUP
NATIONAL WEATHER SERVICE ALBANY NY
600 PM EDT SAT JUN 25 2022

NOTE: "FAIR" INDICATES FEW OR NO CLOUDS BELOW 12,000 FEET WITH NO
SIGNIFICANT WEATHER AND/OR NO OBSTRUCTIONS TO VISIBILITY.

NYZ032-033-038>043-046>054-057>066-NYZ062>081-082-084-252300-
EAST


CITY           SKY/WX    TMP DP  RH WIND       PRES   REMARKS
ALBANY         MOSUNNY   90  51  26 N5        30.07F
GLENS FALLS    SUNNY     87  58  37 S8        30.06F
POUGHKEEPSIE   SUNNY     88  59  37 CALM      30.07S
MONTGOMERY     SUNNY     87  54  32 CALM      30.08S
WHITE PLAINS   MOSUNNY   87  60  40 VRB3      30.09S
ISLIP          MOSUNNY   83  65  54 SW8       30.08F
NEW YORK CITY  MOSUNNY   86  58  38 S17       30.07S
CENTRAL PARK   SUNNY     85  61  44 VRB3      30.10S
$$

NYZ005>009-017-018-044>046-055-056-252300-
CENTRAL


CITY           SKY/WX    TMP DP  RH WIND       PRES   REMARKS
SYRACUSE       MOSUNNY   85  58  39 NE7       30.07F
ROME           SUNNY     87  56  34 CALM      30.08F
ELMIRA         MOSUNNY   88  58  36 SW5       30.06F
BINGHAMTON     SUNNY     82  54  37 CALM      30.13F
MONTICELLO     SUNNY     84  51  31 CALM      30.14F
$$

NYZ026>034-041>043-087-252300-
NORTH


CITY           SKY/WX    TMP DP  RH WIND       PRES   REMARKS
WATERTOWN      MOSUNNY   84  58  40 CALM      30.07F
FORT DRUM      NOT AVBL
OGDENSBURG     FAIR      84  61  45 SW6       30.04F
MASSENA        SUNNY     85  64  49 W6        30.07F
SARANAC LAKE   SUNNY     82  59  45 CALM      30.12F
PLATTSBURGH    SUNNY     83  61  47 E3        30.07S
$$

NYZ001>004-010>016-019>021-085-252300-
WEST


CITY           SKY/WX    TMP DP  RH WIND       PRES   REMARKS
NIAGARA FALLS  PTSUNNY   88  58  36 VRB3      30.03F
BUFFALO        PTSUNNY   90  49  24 VRB3      30.04F
DUNKIRK        PTSUNNY   85  51  31 N5        30.05F
JAMESTOWN      PTSUNNY   83  57  41 VRB6      30.10F
WELLSVILLE     PTSUNNY   85  54  34 S6        30.14F
ROCHESTER      PTSUNNY   84  59  42 NE8       30.06F
PENN YAN       MOSUNNY   85  60  42 VRB5      30.09S
$$

             KEY
       WCI = WIND CHILL INDEX
       VSB = VISIBILITY
       HX  = HEAT INDEX
$$



USA.gov is the U.S. government's official web portal to all federal, state and local government web resources and services.